Location: Thunder Bay
(48.4000°N, 89.2330°W)
Time: 22:17:54
(UTC-04:00)

ISS - Pass Details

Date: 29 June 2021
Orbit: 419 x 421 km, 51.6° (Epoch: 02 August)

Event Time Altitude Azimuth Distance (km) Brightness Sun altitude
Exits shadow 04:29:21 10° 172° (S) 1,471 -1.4 -11.0°
Maximum altitude 04:31:16 15° 137° (SE) 1,224 -1.5 -10.8°
Drops below altitude 10° 04:33:18 10° 100° (E) 1,500 -0.6 -10.7°
Sets 04:36:01 0° 76° (ENE) 2,368 0.9 -10.4°
